period_start,C,m1,H,J0,J1,J2,J3,J4,J5,JA,JB,JC,JD,JJ,JK,JN,#
2016-11-26 00:01:00,0.03,7.75,0.00,20.94,25.69,29.30,14.80,52.03,1023.45,2031.01,1475.99,1727.98,1940.28,599.93,604.25,52.91,0000 0000 0000 0000 000000
2016-11-26 00:06:02,0.11,7.76,0.00,20.95,25.70,29.31,14.82,52.19,1023.45,2031.00,1475.29,1727.27,1940.00,599.87,604.20,52.96,0000 0000 0000 0000 000000
2016-11-26 00:11:03,0.04,7.76,0.00,20.95,25.72,29.30,14.87,52.13,1023.44,2031.00,1474.95,1727.00,1939.44,600.31,604.49,53.01,0000 0000 0000 0000 000000
2016-11-26 00:16:04,0.08,7.76,0.00,20.97,25.72,29.32,14.85,52.10,1023.45,2031.00,1474.14,1726.81,1938.98,600.23,604.42,53.06,0000 0000 0000 0000 000000
2016-11-26 00:21:06,0.10,7.77,0.00,21.03,25.74,29.33,14.92,52.08,1023.45,2031.00,1473.76,1726.06,1938.28,599.96,604.02,53.11,0000 0000 0000 0000 000000
2016-11-26 00:26:07,0.04,7.77,0.00,21.02,25.75,29.34,14.84,52.17,1023.44,2030.99,1473.03,1725.98,1937.98,600.16,604.27,53.16,0000 0000 0000 0000 000000
2016-11-26 00:31:08,0.11,7.77,0.00,21.02,25.77,29.35,14.81,52.08,1023.45,2030.98,1472.67,1725.37,1937.40,599.81,603.89,53.21,0000 0000 0000 0000 000000
2016-11-26 00:36:10,0.04,7.78,0.00,21.06,25.78,29.36,14.80,52.12,1023.45,2030.98,1472.02,1725.01,1937.00,599.98,603.98,53.26,0000 0000 0000 0000 000000
2016-11-26 00:41:11,0.11,7.78,0.00,21.06,25.80,29.38,14.80,52.07,1023.45,2030.95,1471.52,1724.66,1936.37,599.89,604.03,53.31,0000 0000 0000 0000 000000
2016-11-26 00:46:13,0.04,7.79,0.00,21.05,25.82,29.38,14.85,52.03,1023.42,2030.91,1471.01,1724.04,1935.99,600.20,604.20,53.36,0000 0000 0000 0000 000000
2016-11-26 00:51:14,0.05,7.79,0.00,21.08,25.82,29.41,14.91,52.13,1023.40,2030.83,1470.65,1723.97,1935.53,600.26,604.15,53.41,0000 0000 0000 0000 000000
2016-11-26 00:56:15,0.02,7.79,0.00,21.11,25.85,29.41,14.79,52.10,1023.37,2030.48,1470.01,1723.31,1935.01,599.66,603.59,53.46,0000 0000 0000 0000 000000
2016-11-26 01:01:17,0.04,7.79,0.00,21.10,25.85,29.44,14.86,52.05,1023.15,2030.16,1469.53,1723.00,1934.57,599.99,603.76,53.51,0000 0000 0000 0000 000000
2016-11-26 01:06:18,0.06,7.79,0.00,21.10,25.87,29.44,14.75,51.93,1023.08,2030.15,1469.01,1722.72,1934.03,599.80,603.58,53.56,0000 0000 0000 0000 000000
2016-11-26 01:11:19,0.09,7.80,0.00,21.13,25.88,29.47,14.85,52.17,1023.01,2030.06,1468.38,1722.05,1933.66,600.08,603.81,53.61,0000 0000 0000 0000 000000
2016-11-26 01:16:21,0.01,7.80,0.00,21.13,25.90,29.48,14.78,52.04,1022.98,2030.03,1467.99,1721.98,1933.02,599.83,603.37,53.67,0000 0000 0000 0000 000000
2016-11-26 01:21:22,0.10,7.80,0.00,21.16,25.91,29.48,14.85,52.03,1022.97,2030.02,1467.47,1721.44,1932.93,599.98,603.52,53.72,0000 0000 0000 0000 000000
2016-11-26 01:26:23,0.05,7.81,0.00,21.19,25.92,29.49,14.82,51.96,1022.98,2030.01,1467.01,1721.02,1932.19,600.15,603.61,53.77,0000 0000 0000 0000 000000
2016-11-26 01:31:24,0.04,7.81,0.00,21.17,25.93,29.52,14.78,52.01,1022.97,2030.01,1466.56,1720.94,1931.98,600.07,603.55,53.82,0000 0000 0000 0000 000000
2016-11-26 01:36:26,0.10,7.82,0.00,21.20,25.95,29.54,14.83,52.08,1022.97,2030.00,1466.01,1720.22,1931.37,599.74,603.29,53.87,0000 0000 0000 0000 000000
2016-11-26 01:41:27,0.05,7.82,0.00,21.23,25.95,29.52,14.82,51.98,1022.97,2030.00,1465.57,1720.00,1931.01,600.08,603.40,53.92,0000 0000 0000 0000 000000
2016-11-26 01:46:28,0.03,7.82,0.00,21.21,25.97,29.55,14.90,52.10,1022.96,2030.00,1465.02,1719.93,1930.77,600.37,603.75,53.97,0000 0000 0000 0000 000000
2016-11-26 01:51:30,0.09,7.83,0.00,21.24,25.98,29.56,14.81,52.13,1022.96,2030.00,1464.85,1719.27,1930.07,600.05,603.63,54.02,0000 0000 0000 0000 000000
2016-11-26 01:56:31,0.06,7.83,0.00,21.26,26.00,29.56,14.96,52.12,1022.97,2030.00,1464.08,1719.00,1929.92,600.40,603.76,54.07,0000 0000 0000 0000 000000
2016-11-26 02:01:32,0.05,7.83,0.00,21.26,26.01,29.59,14.81,52.09,1022.97,2029.98,1463.98,1718.80,1929.16,600.05,603.38,54.12,0000 0000 0000 0000 000000
2016-11-26 02:06:33,0.09,7.84,0.00,21.28,26.02,29.59,14.82,52.05,1022.96,2029.98,1463.31,1718.08,1928.98,600.11,603.30,54.17,0000 0000 0000 0000 000000
2016-11-26 02:11:35,0.02,7.84,0.00,21.30,26.04,29.59,14.80,52.11,1022.97,2029.98,1463.00,1718.00,1928.65,600.02,603.29,54.22,0000 0000 0000 0000 000000
2016-11-26 02:16:36,0.05,7.84,0.00,21.31,26.05,29.62,14.80,51.96,1022.97,2029.92,1462.68,1717.82,1928.04,600.03,603.19,54.27,0000 0000 0000 0000 000000
2016-11-26 02:21:38,0.04,7.84,0.00,21.32,26.06,29.63,14.79,51.96,1022.96,2029.70,1462.02,1717.11,1927.94,599.98,603.23,54.32,0000 0000 0000 0000 000000
2016-11-26 02:26:39,0.04,7.85,0.00,21.33,26.07,29.65,14.82,52.06,1022.96,2029.58,1461.84,1716.99,1927.22,599.77,603.01,54.37,0000 0000 0000 0000 000000
2016-11-26 02:31:40,0.03,7.85,0.00,21.33,26.08,29.65,14.90,52.09,1022.96,2029.28,1461.07,1716.73,1926.99,600.24,603.36,54.42,0000 0000 0000 0000 000000
2016-11-26 02:36:42,0.04,7.85,0.00,21.36,26.10,29.67,14.86,52.01,1022.96,2029.06,1460.96,1716.05,1926.60,600.15,603.28,54.47,0000 0000 0000 0000 000000
2016-11-26 02:41:43,0.07,7.85,0.00,21.38,26.11,29.69,14.80,51.99,1022.97,2029.07,1460.20,1716.00,1926.02,599.89,602.85,54.52,0000 0000 0000 0000 000000
2016-11-26 02:46:44,0.02,7.85,0.00,21.39,26.12,29.69,14.73,51.95,1022.96,2029.06,1460.00,1715.88,1925.96,599.97,603.03,54.58,0000 0000 0000 0000 000000
2016-11-26 02:51:46,0.09,7.86,0.00,21.40,26.13,29.70,14.79,51.93,1022.98,2029.04,1459.70,1715.17,1925.42,600.02,603.04,54.63,0000 0000 0000 0000 000000
2016-11-26 02:56:47,0.04,7.86,0.00,21.41,26.15,29.74,14.82,52.02,1022.98,2029.02,1459.05,1715.00,1925.01,600.09,603.14,54.68,0000 0000 0000 0000 000000
2016-11-26 03:01:48,0.01,7.86,0.00,21.41,26.15,29.73,14.74,52.00,1022.99,2029.03,1458.97,1714.94,1924.93,599.98,602.94,54.73,0000 0000 0000 0000 000000
2016-11-26 03:06:50,0.13,7.87,0.00,21.44,26.17,29.75,14.79,52.03,1022.97,2029.01,1458.21,1714.28,1924.19,599.95,602.93,54.78,0000 0000 0000 0000 000000
2016-11-26 03:11:51,0.01,7.87,0.00,21.45,26.18,29.77,14.81,51.99,1022.97,2029.00,1458.00,1714.01,1924.00,600.12,602.98,54.83,0000 0000 0000 0000 000000
2016-11-26 03:16:52,0.06,7.87,0.00,21.47,26.20,29.78,14.78,51.98,1022.97,2029.00,1457.54,1713.98,1923.80,600.10,603.07,54.88,0000 0000 0000 0000 000000
2016-11-26 03:21:54,0.08,7.88,0.00,21.49,26.20,29.78,14.85,51.97,1023.00,2029.00,1457.02,1713.51,1923.07,600.31,603.19,54.93,0000 0000 0000 0000 000000
2016-11-26 03:26:55,0.03,7.88,0.00,21.50,26.22,29.80,14.82,51.94,1023.05,2029.00,1456.90,1713.04,1922.99,599.90,602.91,54.98,0000 0000 0000 0000 000000
2016-11-26 03:31:57,0.08,7.88,0.00,21.51,26.23,29.82,14.73,52.02,1023.07,2029.00,1456.15,1712.99,1922.51,600.04,602.84,55.03,0000 0000 0000 0000 000000
2016-11-26 03:36:58,0.02,7.88,0.00,21.51,26.25,29.82,14.84,52.07,1023.05,2028.99,1456.00,1712.80,1922.02,599.93,602.83,55.08,0000 0000 0000 0000 000000
2016-11-26 03:41:59,0.06,7.89,0.00,21.52,26.26,29.85,14.78,51.87,1023.12,2028.99,1455.77,1712.17,1921.97,599.98,602.76,55.13,0000 0000 0000 0000 000000
2016-11-26 03:47:00,0.07,7.89,0.00,21.53,26.27,29.83,14.86,52.13,1023.10,2028.96,1455.08,1712.01,1921.35,600.35,603.12,55.18,0000 0000 0000 0000 000000
2016-11-26 03:52:01,-0.00,7.89,0.00,21.57,26.30,29.84,14.86,52.01,1023.26,2028.88,1454.98,1711.97,1921.00,599.97,602.79,55.23,0000 0000 0000 0000 000000
2016-11-26 03:57:03,0.06,7.89,0.00,21.58,26.31,29.89,14.79,52.06,1023.11,2028.68,1454.41,1711.45,1920.96,600.12,602.81,55.28,0000 0000 0000 0000 000000
2016-11-26 04:02:04,0.02,7.90,0.00,21.58,26.32,29.87,14.82,52.08,1023.04,2028.45,1454.01,1711.05,1920.35,600.27,602.92,55.33,0000 0000 0000 0000 000000
2016-11-26 04:07:05,-0.01,7.90,0.00,21.59,26.34,29.89,14.81,52.04,1023.12,2028.21,1453.90,1710.99,1920.00,599.66,602.53,55.38,0000 0000 0000 0000 000000
2016-11-26 04:12:07,0.06,7.90,0.00,21.60,26.35,29.91,14.86,52.08,1023.25,2028.07,1453.15,1710.76,1919.99,600.31,603.10,55.44,0000 0000 0000 0000 000000
2016-11-26 04:17:08,0.06,7.90,0.00,21.59,26.35,29.93,14.75,52.02,1023.25,2028.04,1453.00,1710.14,1919.57,599.82,602.61,55.49,0000 0000 0000 0000 000000
2016-11-26 04:22:09,0.04,7.90,0.00,21.62,26.37,29.94,14.82,52.10,1023.36,2028.02,1452.76,1710.00,1919.04,600.01,602.83,55.54,0000 0000 0000 0000 000000
2016-11-26 04:27:10,0.03,7.90,0.00,21.62,26.37,29.96,14.74,52.05,1023.38,2028.00,1452.06,1709.98,1918.99,599.93,602.80,55.59,0000 0000 0000 0000 000000
2016-11-26 04:32:12,0.06,7.91,0.00,21.63,26.39,29.98,14.81,52.05,1023.44,2028.00,1451.99,1709.58,1918.65,599.94,602.85,55.64,0000 0000 0000 0000 000000
2016-11-26 04:37:13,0.08,7.91,0.00,21.62,26.40,29.98,14.80,51.98,1023.43,2028.00,1451.61,1709.06,1918.05,599.62,602.45,55.69,0000 0000 0000 0000 000000
2016-11-26 04:42:14,0.02,7.91,0.00,21.65,26.40,29.98,14.81,51.93,1023.21,2028.00,1451.03,1709.00,1917.99,600.02,602.72,55.74,0000 0000 0000 0000 000000
2016-11-26 04:47:15,0.01,7.91,0.00,21.64,26.41,30.00,14.78,52.02,1023.36,2028.00,1450.99,1708.97,1917.83,599.75,602.56,55.79,0000 0000 0000 0000 000000
2016-11-26 04:52:16,0.12,7.92,0.00,21.66,26.42,30.00,14.79,52.08,1023.37,2028.00,1450.42,1708.49,1917.15,599.87,602.62,55.84,0000 0000 0000 0000 000000
2016-11-26 04:57:17,0.02,7.92,0.00,21.69,26.42,30.01,14.82,51.98,1023.42,2028.00,1450.02,1708.02,1917.00,600.16,602.91,55.89,0000 0000 0000 0000 000000
2016-11-26 05:02:18,0.01,7.92,0.00,21.68,26.43,30.03,14.82,52.05,1023.42,2027.99,1449.98,1708.00,1916.86,600.13,602.77,55.94,0000 0000 0000 0000 000000
2016-11-26 05:07:19,0.07,7.92,0.00,21.70,26.45,30.02,14.78,52.02,1023.45,2027.99,1449.61,1707.96,1916.11,599.81,602.40,55.99,0000 0000 0000 0000 000000
2016-11-26 05:12:21,0.06,7.93,0.00,21.67,26.45,30.04,14.82,52.13,1023.45,2027.99,1449.03,1707.45,1916.00,599.84,602.63,56.04,0000 0000 0000 0000 000000
2016-11-26 05:17:22,0.02,7.93,0.00,21.71,26.45,30.06,14.84,52.08,1023.45,2027.99,1448.91,1707.02,1915.90,600.02,602.60,56.09,0000 0000 0000 0000 000000
2016-11-26 05:22:23,0.08,7.93,0.00,21.70,26.45,30.05,14.77,52.04,1023.45,2027.98,1448.18,1706.98,1915.14,600.07,602.79,56.14,0000 0000 0000 0000 000000
2016-11-26 05:27:25,0.02,7.94,0.00,21.69,26.45,30.07,14.84,52.17,1023.45,2027.98,1448.00,1706.77,1914.99,600.01,602.72,56.19,0000 0000 0000 0000 000000
2016-11-26 05:32:26,0.06,7.94,0.00,21.68,26.46,30.07,14.76,52.02,1023.45,2027.98,1447.87,1706.12,1914.78,599.92,602.61,56.24,0000 0000 0000 0000 000000
2016-11-26 05:37:27,0.07,7.94,0.00,21.70,26.47,30.05,14.77,51.90,1023.46,2027.99,1447.10,1705.99,1914.10,599.49,602.31,56.29,0000 0000 0000 0000 000000
2016-11-26 05:42:28,0.00,7.94,0.00,21.69,26.47,30.09,14.80,52.09,1023.45,2027.97,1446.97,1705.90,1913.99,599.38,602.12,56.34,0000 0000 0000 0000 000000
2016-11-26 05:47:29,0.12,7.95,0.00,21.71,26.47,30.10,14.75,51.98,1023.46,2027.96,1446.31,1705.24,1913.63,599.49,602.17,56.39,0000 0000 0000 0000 000000
2016-11-26 05:52:31,0.03,7.95,0.00,21.73,26.47,30.09,14.81,51.90,1023.45,2027.98,1445.99,1705.01,1913.04,599.86,602.55,56.45,0000 0000 0000 0000 000000
2016-11-26 05:57:32,0.03,7.95,0.00,21.72,26.47,30.10,14.79,51.93,1023.45,2027.97,1445.67,1704.98,1912.99,600.00,602.75,56.50,0000 0000 0000 0000 000000
2016-11-26 06:02:33,0.09,7.96,0.00,21.74,26.48,30.08,14.87,51.93,1023.45,2027.94,1445.04,1704.58,1912.59,600.15,602.88,56.55,0000 0000 0000 0000 000000
2016-11-26 06:07:35,0.03,7.96,0.00,21.74,26.50,30.09,14.77,51.92,1023.45,2027.96,1444.98,1704.05,1912.02,599.77,602.35,56.60,0000 0000 0000 0000 000000
2016-11-26 06:12:36,0.04,7.96,0.00,21.74,26.50,30.09,14.75,51.92,1023.45,2027.92,1444.35,1704.00,1911.97,599.75,602.36,56.65,0000 0000 0000 0000 000000
2016-11-26 06:17:37,0.05,7.96,0.00,21.74,26.50,30.11,14.79,52.02,1023.46,2027.89,1444.01,1703.79,1911.40,599.81,602.52,56.70,0000 0000 0000 0000 000000
2016-11-26 06:22:39,0.05,7.97,0.00,21.76,26.51,30.11,14.82,51.98,1023.48,2027.86,1443.82,1703.10,1911.02,600.26,602.81,56.75,0000 0000 0000 0000 000000
2016-11-26 06:27:40,0.05,7.97,0.00,21.75,26.52,30.13,14.75,52.07,1023.48,2027.88,1443.08,1703.00,1910.94,599.67,602.39,56.80,0000 0000 0000 0000 000000
2016-11-26 06:32:41,0.03,7.97,0.00,21.77,26.52,30.14,14.87,52.07,1023.47,2027.78,1443.00,1702.92,1910.21,600.22,602.77,56.85,0000 0000 0000 0000 000000
2016-11-26 06:37:42,0.09,7.97,0.00,21.79,26.53,30.12,14.79,51.92,1023.45,2027.63,1442.43,1702.22,1910.00,599.96,602.55,56.90,0000 0000 0000 0000 000000
2016-11-26 06:42:43,-0.01,7.98,0.00,21.81,26.55,30.15,14.84,52.03,1023.46,2027.39,1442.00,1702.00,1909.66,600.03,602.50,56.95,0000 0000 0000 0000 000000
2016-11-26 06:47:45,0.02,7.98,0.00,21.79,26.55,30.16,14.80,51.92,1023.46,2027.20,1441.84,1701.91,1909.03,600.19,602.72,57.00,0000 0000 0000 0000 000000
2016-11-26 06:52:46,0.08,7.98,0.00,21.82,26.55,30.16,14.81,52.03,1023.48,2027.07,1441.09,1701.20,1908.95,600.14,602.64,57.05,0000 0000 0000 0000 000000
2016-11-26 06:57:47,0.04,7.98,0.00,21.83,26.57,30.17,14.84,52.04,1023.63,2027.06,1440.98,1701.00,1908.27,599.95,602.46,57.10,0000 0000 0000 0000 000000
2016-11-26 07:02:49,0.06,7.99,0.00,21.84,26.57,30.18,14.81,51.90,1023.53,2027.04,1440.38,1700.89,1907.98,600.03,602.52,57.15,0000 0000 0000 0000 000000
2016-11-26 07:07:50,0.08,7.99,0.00,21.85,26.57,30.17,14.78,51.97,1023.53,2027.03,1440.00,1700.20,1907.57,599.80,602.29,57.20,0000 0000 0000 0000 000000
2016-11-26 07:12:51,0.06,7.99,0.00,21.87,26.57,30.18,14.80,52.08,1023.48,2027.01,1439.59,1700.00,1907.03,600.25,602.49,57.25,0000 0000 0000 0000 000000
2016-11-26 07:17:53,0.03,8.00,0.00,21.85,26.59,30.21,14.78,51.98,1023.48,2027.02,1439.02,1699.90,1906.94,599.92,602.29,57.30,0000 0000 0000 0000 000000
2016-11-26 07:22:54,0.11,8.00,0.00,21.89,26.60,30.19,14.79,51.92,1023.46,2027.01,1438.69,1699.18,1906.20,599.94,602.28,57.36,0000 0000 0000 0000 000000
2016-11-26 07:27:55,0.03,8.00,0.00,21.85,26.60,30.20,14.83,51.91,1023.47,2027.00,1438.03,1699.00,1905.99,600.27,602.47,57.41,0000 0000 0000 0000 000000
2016-11-26 07:32:56,0.04,8.00,0.00,21.87,26.61,30.23,14.77,51.97,1023.46,2027.00,1437.93,1698.84,1905.60,599.79,602.23,57.46,0000 0000 0000 0000 000000
2016-11-26 07:37:57,0.11,8.01,0.00,21.90,26.62,30.23,14.74,51.89,1023.46,2027.00,1437.18,1698.12,1905.02,599.84,602.09,57.51,0000 0000 0000 0000 000000
2016-11-26 07:42:59,0.01,8.01,0.00,21.91,26.62,30.23,14.77,51.88,1023.46,2027.00,1436.98,1698.00,1904.88,600.13,602.38,57.56,0000 0000 0000 0000 000000
2016-11-26 07:48:00,0.11,8.02,0.00,21.88,26.63,30.25,14.84,52.05,1023.45,2027.00,1436.35,1697.73,1904.13,600.11,602.43,57.61,0000 0000 0000 0000 000000
2016-11-26 07:53:01,0.04,8.02,0.00,21.91,26.65,30.25,14.80,51.98,1023.48,2027.00,1435.99,1697.07,1904.00,599.58,601.78,57.66,0000 0000 0000 0000 000000
2016-11-26 07:58:03,0.07,8.02,0.00,21.90,26.65,30.25,14.74,51.90,1023.47,2026.99,1435.58,1696.99,1903.57,600.06,602.49,57.71,0000 0000 0000 0000 000000
2016-11-26 08:03:04,0.06,8.03,0.00,21.90,26.65,30.28,14.82,51.91,1023.47,2026.99,1435.01,1696.65,1903.02,600.37,602.62,57.76,0000 0000 0000 0000 000000
2016-11-26 08:08:06,0.05,8.03,0.00,21.93,26.66,30.25,14.79,51.96,1023.54,2026.99,1434.77,1696.04,1902.83,600.21,602.56,57.81,0000 0000 0000 0000 000000
2016-11-26 08:13:06,0.07,8.03,0.00,21.93,26.67,30.27,14.76,51.99,1023.54,2026.99,1434.07,1695.99,1902.09,599.99,602.32,57.86,0000 0000 0000 0000 000000
2016-11-26 08:18:08,0.06,8.04,0.00,21.91,26.67,30.30,14.70,51.82,1023.64,2026.98,1433.83,1695.47,1901.98,599.42,601.78,57.91,0000 0000 0000 0000 000000
2016-11-26 08:23:09,0.09,8.04,0.00,21.92,26.67,30.29,14.81,52.06,1023.83,2026.98,1433.07,1695.01,1901.30,600.01,602.48,57.96,0000 0000 0000 0000 000000
2016-11-26 08:28:10,0.01,8.04,0.00,21.94,26.68,30.29,14.79,52.05,1023.70,2026.97,1432.97,1694.97,1901.00,600.27,602.62,58.01,0000 0000 0000 0000 000000
2016-11-26 08:33:12,0.11,8.05,0.00,21.93,26.70,30.32,14.78,52.02,1023.66,2026.94,1432.39,1694.37,1900.77,600.04,602.35,58.06,0000 0000 0000 0000 000000
2016-11-26 08:38:13,0.03,8.05,0.00,21.94,26.70,30.32,14.79,52.02,1023.50,2026.91,1431.99,1694.01,1900.05,600.05,602.24,58.11,0000 0000 0000 0000 000000
2016-11-26 08:43:14,0.05,8.05,0.00,21.95,26.70,30.33,14.77,51.96,1023.53,2026.93,1431.59,1693.96,1899.99,600.04,602.17,58.16,0000 0000 0000 0000 000000
2016-11-26 08:48:15,0.09,8.06,0.00,21.93,26.70,30.32,14.80,51.98,1023.70,2026.84,1431.02,1693.36,1899.46,599.97,602.37,58.21,0000 0000 0000 0000 000000
2016-11-26 08:53:16,-0.02,8.06,0.00,21.95,26.72,30.33,14.86,52.15,1023.86,2026.59,1430.80,1693.01,1899.01,600.25,602.73,58.27,0000 0000 0000 0000 000000
2016-11-26 08:58:17,0.06,8.06,0.00,21.98,26.72,30.33,14.81,52.05,1023.86,2026.58,1430.08,1692.97,1898.95,600.12,602.52,58.32,0000 0000 0000 0000 000000
2016-11-26 09:03:18,0.08,8.06,0.00,21.96,26.72,30.33,14.75,51.99,1023.87,2026.61,1429.99,1692.56,1898.30,599.74,602.09,58.37,0000 0000 0000 0000 000000
2016-11-26 09:08:19,0.02,8.07,0.00,21.95,26.72,30.34,14.79,52.10,1023.89,2026.35,1429.45,1692.02,1898.00,599.93,602.33,58.42,0000 0000 0000 0000 000000
2016-11-26 09:13:21,0.05,8.07,0.00,21.95,26.73,30.33,14.81,51.98,1023.94,2026.48,1429.01,1691.99,1897.64,600.12,602.56,58.47,0000 0000 0000 0000 000000
2016-11-26 09:18:22,0.06,8.07,0.00,21.95,26.74,30.35,14.79,52.01,1023.94,2026.21,1428.74,1691.43,1897.03,600.04,602.45,58.52,0000 0000 0000 0000 000000
2016-11-26 09:23:23,0.04,8.07,0.00,21.96,26.75,30.35,14.77,52.08,1023.94,2026.11,1428.05,1691.01,1896.82,599.91,602.36,58.57,0000 0000 0000 0000 000000
2016-11-26 09:28:25,0.04,8.08,0.00,21.96,26.75,30.34,14.75,52.01,1023.94,2026.09,1427.90,1690.92,1896.05,599.91,602.29,58.62,0000 0000 0000 0000 000000
2016-11-26 09:33:26,0.12,8.08,0.00,21.94,26.75,30.36,14.82,52.11,1023.94,2026.10,1427.10,1690.22,1895.98,600.22,602.62,58.67,0000 0000 0000 0000 000000
2016-11-26 09:38:27,0.03,8.08,0.00,21.93,26.75,30.37,14.81,52.14,1023.94,2026.10,1426.92,1690.00,1895.39,600.19,602.69,58.72,0000 0000 0000 0000 000000
2016-11-26 09:43:29,0.09,8.09,0.00,21.97,26.75,30.35,14.81,52.01,1023.96,2026.06,1426.12,1689.77,1895.00,599.95,602.44,58.77,0000 0000 0000 0000 000000
2016-11-26 09:48:30,0.07,8.09,0.00,21.99,26.76,30.37,14.74,51.98,1023.95,2026.06,1425.90,1689.07,1894.43,599.93,602.33,58.82,0000 0000 0000 0000 000000
2016-11-26 09:53:31,0.06,8.10,0.00,21.97,26.77,30.36,14.86,52.13,1023.96,2026.05,1425.12,1688.98,1894.01,599.89,602.43,58.87,0000 0000 0000 0000 000000
2016-11-26 09:58:32,0.08,8.10,0.00,21.98,26.77,30.36,14.81,52.08,1023.99,2026.05,1424.88,1688.48,1893.74,599.90,602.28,58.92,0000 0000 0000 0000 000000
2016-11-26 10:03:33,0.08,8.11,0.00,22.00,26.77,30.35,14.78,52.00,1023.96,2026.06,1424.10,1688.01,1893.03,600.00,602.42,58.97,0000 0000 0000 0000 000000
2016-11-26 10:08:35,0.02,8.11,0.00,21.98,26.77,30.39,14.82,52.11,1023.96,2026.03,1423.84,1687.88,1892.84,600.10,602.68,59.02,0000 0000 0000 0000 000000
2016-11-26 10:13:36,0.14,8.11,0.00,21.96,26.77,30.39,14.81,52.11,1023.98,2026.06,1423.05,1687.13,1892.07,600.06,602.59,59.07,0000 0000 0000 0000 000000
2016-11-26 10:18:37,0.04,8.11,0.00,21.99,26.77,30.38,14.74,51.96,1024.07,2026.05,1422.69,1687.00,1891.94,599.72,602.17,59.12,0000 0000 0000 0000 000000
2016-11-26 10:23:38,0.11,8.12,0.00,21.97,26.77,30.37,14.74,52.08,1024.07,2026.06,1422.03,1686.50,1891.15,599.57,602.12,59.17,0000 0000 0000 0000 000000
2016-11-26 10:28:40,0.05,8.12,0.00,21.98,26.77,30.36,14.85,52.17,1024.31,2026.08,1421.70,1686.01,1890.92,599.91,602.40,59.23,0000 0000 0000 0000 000000
2016-11-26 10:33:41,0.08,8.13,0.00,22.01,26.77,30.36,14.82,52.05,1024.29,2026.08,1421.02,1685.81,1890.13,599.73,602.40,59.28,0000 0000 0000 0000 000000
2016-11-26 10:38:42,0.11,8.13,0.00,21.97,26.77,30.38,14.76,51.98,1024.22,2026.07,1420.34,1685.08,1889.86,600.03,602.61,59.33,0000 0000 0000 0000 000000
2016-11-26 10:43:44,0.06,8.14,0.00,21.98,26.77,30.39,14.82,52.00,1024.19,2026.03,1419.88,1684.79,1889.07,600.22,602.78,59.38,0000 0000 0000 0000 000000
2016-11-26 10:48:45,0.11,8.14,0.00,21.99,26.77,30.36,14.83,52.08,1024.27,2026.02,1419.07,1684.05,1888.66,600.06,602.55,59.43,0000 0000 0000 0000 000000
2016-11-26 10:53:46,0.08,8.15,0.00,21.99,26.77,30.38,14.73,52.15,1024.13,2026.01,1418.49,1683.85,1888.01,599.97,602.47,59.48,0000 0000 0000 0000 000000
2016-11-26 10:58:47,0.11,8.15,0.00,21.97,26.77,30.39,14.84,52.23,1024.24,2026.02,1417.87,1683.09,1887.51,599.83,602.44,59.53,0000 0000 0000 0000 000000
2016-11-26 11:03:49,0.09,8.16,0.00,22.00,26.77,30.37,14.78,52.25,1024.29,2026.03,1417.06,1682.79,1886.94,599.72,602.38,59.58,0000 0000 0000 0000 000000
2016-11-26 11:08:50,0.13,8.16,0.00,22.00,26.77,30.38,14.85,52.13,1024.42,2026.02,1416.48,1682.06,1886.12,600.04,602.65,59.63,0000 0000 0000 0000 000000
2016-11-26 11:13:51,0.08,8.17,0.00,21.97,26.77,30.39,14.74,52.13,1024.43,2026.02,1415.90,1681.71,1885.60,599.56,602.18,59.68,0000 0000 0000 0000 000000
2016-11-26 11:18:52,0.10,8.17,0.00,21.98,26.77,30.37,14.79,52.22,1024.43,2026.01,1415.08,1681.01,1884.94,599.90,602.68,59.73,0000 0000 0000 0000 000000
2016-11-26 11:23:54,0.15,8.18,0.00,21.98,26.77,30.38,14.81,52.23,1024.43,2026.00,1414.39,1680.42,1884.12,599.99,602.70,59.78,0000 0000 0000 0000 000000
2016-11-26 11:28:55,0.08,8.18,0.00,21.94,26.77,30.40,14.84,52.23,1024.43,2026.00,1413.73,1679.96,1883.52,599.82,602.63,59.83,0000 0000 0000 0000 000000
2016-11-26 11:33:57,0.11,8.19,0.00,21.95,26.77,30.39,14.73,52.17,1024.43,2026.00,1412.97,1679.19,1882.90,599.61,602.41,59.88,0000 0000 0000 0000 000000
2016-11-26 11:38:58,0.13,8.20,0.00,21.96,26.77,30.38,14.80,52.27,1024.43,2026.00,1412.14,1678.68,1882.09,599.92,602.66,59.93,0000 0000 0000 0000 000000
2016-11-26 11:43:59,0.12,8.20,0.00,21.93,26.77,30.40,14.82,52.21,1024.43,2026.00,1411.36,1677.99,1881.27,599.95,602.82,59.98,0000 0000 0000 0000 000000
2016-11-26 11:49:01,0.16,8.21,0.00,21.93,26.77,30.37,14.85,52.29,1024.41,2026.00,1410.48,1677.16,1880.42,600.14,602.84,60.03,0000 0000 0000 0000 000000
2016-11-26 11:54:02,0.15,8.22,0.00,21.96,26.77,30.37,14.77,52.13,1024.42,2026.00,1409.51,1676.42,1879.59,600.24,603.00,60.08,0000 0000 0000 0000 000000
2016-11-26 11:59:04,0.09,7.40,0.00,21.93,26.78,30.37,12.81,45.03,1024.40,2026.67,1689.76,1873.56,2106.42,528.62,531.10,0.00,0000 0000 0000 0000 000002
2016-11-26 12:04:05,0.16,0.00,0.00,21.92,26.80,30.42,14.74,47.33,1024.43,2031.00,3510.03,3156.44,3585.85,600.04,602.74,0.02,0000 0000 0000 0000 000000
2016-11-26 12:09:06,0.16,0.00,0.00,21.93,26.80,30.41,14.77,47.22,1024.42,2031.00,3505.12,3153.90,3583.34,600.24,603.03,0.07,0000 0000 0000 0000 000000
2016-11-26 12:14:07,0.16,0.01,0.00,21.90,26.81,30.43,14.72,47.27,1024.41,2030.99,3501.30,3151.45,3580.61,599.99,602.82,0.12,0000 0000 0000 0000 000000
2016-11-26 12:19:08,0.17,0.02,0.00,21.91,26.82,30.42,14.85,47.58,1024.26,2030.99,3497.60,3148.96,3577.66,600.32,603.06,0.17,0000 0000 0000 0000 000000
2016-11-26 12:24:10,0.17,0.03,0.00,21.90,26.82,30.40,14.68,47.64,1024.23,2030.98,3493.69,3146.31,3574.63,599.86,602.64,0.22,0000 0000 0000 0000 000000
2016-11-26 12:29:11,0.18,0.04,0.00,21.88,26.82,30.44,14.68,48.02,1024.17,2030.97,3489.62,3143.50,3571.34,599.69,602.38,0.27,0000 0000 0000 0000 000000
2016-11-26 12:34:12,0.18,0.04,0.00,21.87,26.82,30.45,14.74,48.17,1024.38,2030.98,3485.40,3140.64,3568.07,599.86,602.75,0.32,0000 0000 0000 0000 000000
2016-11-26 12:39:14,0.20,0.05,0.00,21.89,26.81,30.40,14.75,48.39,1024.43,2030.97,3481.08,3137.67,3564.60,600.00,602.93,0.37,0000 0000 0000 0000 000000
2016-11-26 12:44:15,0.18,0.06,0.00,21.87,26.80,30.41,14.71,48.28,1024.42,2030.97,3476.81,3134.74,3561.16,600.44,603.45,0.42,0000 0000 0000 0000 000000
2016-11-26 12:49:16,0.18,0.07,0.00,21.87,26.80,30.43,14.81,48.59,1024.37,2030.96,3472.53,3131.90,3557.76,600.17,603.04,0.47,0000 0000 0000 0000 000000
2016-11-26 12:54:17,0.18,0.08,0.00,21.88,26.80,30.37,14.77,48.52,1024.43,2030.92,3468.24,3128.96,3554.40,600.00,602.91,0.52,0000 0000 0000 0000 000000